Weather History for Marion Regional, IL

Change the Weather History Date:

Sunday, February 10, 2013

  Actual Average Record
Temperature  
Mean Temperature 48 °F -  
Max Temperature 55 °F 38 °F 71 °F (1999)
Min Temperature 41 °F 18 °F -8 °F (1979)
Degree Days  
Heating Degree Days 17    
Moisture  
Dew Point 44 °F    
Average Humidity 81    
Maximum Humidity 94    
Minimum Humidity 54    
Precipitation  
Precipitation 0.02 in - - ()
Sea Level Pressure  
Sea Level Pressure 29.88 in    
Wind  
Wind Speed 8 mph (SSE)    
Max Wind Speed 17 mph    
Max Gust Speed 29 mph    
Visibility 10 miles    
Events Rain , Thunderstorm    
Averages and records for this station are not official NWS values.
T = Trace of Precipitation, MM = Missing Value Source: NWS Daily Summary

Daily Weather History Graph

Daily Weather History Graph

Search for Another Location

Airport:

Trip Planner

Search our weather history database for the weather conditions in past years. The results will help you decide how hot, cold, wet, or windy it might be!

Date:

Astronomy

Feb. 10, 2013 Rise Set
Actual Time 6:51 AM CST 5:30 PM CST
Civil Twilight 6:23 AM CST 5:57 PM CST
Nautical Twilight 5:53 AM CST 6:28 PM CST
Astronomical Twilight 5:22 AM CST 6:58 PM CST
Moon 6:42 AM CST (2/10) 6:18 PM CST (2/10)
Length of Visible Light 11h 33m
Length of Day
10h 39m
New Moon, 0% of the Moon is Illuminated
Feb 10
New Moon
Feb 17
First Quarter
Feb 25
Full
Mar 4
Last Quarter
Mar 11
New

Hourly Weather History & Observations

Time (CST) Temp. Windchill Dew Point Humidity Pressure Visibility Wind Dir Wind Speed Gust Speed Precip Events Conditions
12:15 AM 41.0 °F 38.0 °F 35.6 °F 81% 30.07 in 10.0 mi East 4.6 mph - N/A   Overcast
12:35 AM 41.0 °F 37.1 °F 35.6 °F 81% 30.06 in 10.0 mi East 5.8 mph - N/A   Overcast
12:55 AM 41.0 °F - 35.6 °F 81% 30.06 in 10.0 mi Calm Calm - N/A   Scattered Clouds
1:15 AM 41.0 °F 39.0 °F 35.6 °F 81% 30.05 in 10.0 mi ESE 3.5 mph - N/A   Unknown
1:35 AM 41.0 °F 38.0 °F 35.6 °F 81% 30.05 in 10.0 mi ESE 4.6 mph - N/A   Mostly Cloudy
1:55 AM 41.0 °F 39.0 °F 35.6 °F 81% 30.04 in 10.0 mi ESE 3.5 mph - N/A   Unknown
2:15 AM 42.8 °F - 35.6 °F 76% 30.05 in 10.0 mi Calm Calm - N/A   Mostly Cloudy
2:35 AM 42.8 °F 41.1 °F 35.6 °F 76% 30.04 in 10.0 mi ESE 3.5 mph - N/A Rain Light Rain
2:55 AM 42.8 °F 41.1 °F 35.6 °F 76% 30.03 in 10.0 mi East 3.5 mph - N/A Rain Light Rain
3:15 AM 42.8 °F 41.1 °F 35.6 °F 76% 30.02 in 10.0 mi ESE 3.5 mph - 0.01 in Rain Rain
3:35 AM 42.8 °F 39.3 °F 37.4 °F 81% 30.01 in 10.0 mi East 5.8 mph - 0.01 in Rain Light Rain
3:55 AM 42.8 °F 40.1 °F 37.4 °F 81% 29.99 in 10.0 mi ESE 4.6 mph - 0.01 in Rain Light Rain
4:15 AM 42.8 °F 40.1 °F 37.4 °F 81% 29.99 in 10.0 mi ESE 4.6 mph - N/A   Overcast
4:35 AM 44.6 °F 41.4 °F 37.4 °F 76% 29.97 in 10.0 mi ESE 5.8 mph - N/A   Drizzle
4:55 AM 44.6 °F 40.7 °F 37.4 °F 76% 29.97 in 10.0 mi SE 6.9 mph - 0.01 in   Mostly Cloudy
5:15 AM 44.6 °F 40.2 °F 37.4 °F 76% 29.96 in 10.0 mi ESE 8.1 mph - N/A   Overcast
5:35 AM 44.6 °F 40.2 °F 37.4 °F 76% 29.96 in 10.0 mi SE 8.1 mph - N/A   Overcast
6:53 AM 48.2 °F - 39.2 °F 71% 29.95 in 15.0 mi SE 11.5 mph - N/A   Overcast
8:56 AM 53.6 °F - 37.4 °F 54% 29.86 in 15.0 mi SSE 15.0 mph - N/A   Overcast
9:29 AM 53.6 °F - 37.4 °F 54% 29.85 in 10.0 mi SSE 16.1 mph 23.0 mph N/A Thunderstorm Thunderstorm
9:52 AM 53.6 °F - 39.2 °F 58% 29.88 in 2.0 mi South 15.0 mph 28.8 mph N/A Rain , Thunderstorm Light Thunderstorms and Rain
10:56 AM 48.2 °F - 46.4 °F 93% 29.89 in 4.0 mi South 11.5 mph - N/A Rain , Thunderstorm Light Thunderstorms and Rain
11:20 AM 48.2 °F - 46.4 °F 93% 29.82 in 10.0 mi SE 13.8 mph - N/A Rain Light Rain
12:55 PM 51.8 °F - 48.2 °F 88% 29.75 in 15.0 mi SSE 17.3 mph - N/A   Overcast
2:55 PM 55.4 °F - 51.8 °F 88% 29.68 in 10.0 mi South 17.3 mph - N/A   Overcast
3:55 PM 55.4 °F - 51.8 °F 88% 29.71 in 10.0 mi South 17.3 mph - N/A   Overcast
4:55 PM 55.4 °F - 53.6 °F 94% 29.74 in 10.0 mi SSW 11.5 mph - N/A   Overcast
6:55 PM 55.4 °F - 51.8 °F 88% 29.74 in 10.0 mi South 16.1 mph - N/A   Overcast
7:15 PM 55.4 °F - 51.8 °F 88% 29.74 in 10.0 mi South 13.8 mph - N/A   Overcast
7:35 PM 55.4 °F - 51.8 °F 88% 29.75 in 10.0 mi SSW 16.1 mph - N/A   Overcast
7:55 PM 55.4 °F - 51.8 °F 88% 29.75 in 10.0 mi South 16.1 mph - N/A   Overcast
8:15 PM 55.4 °F - 51.8 °F 88% 29.76 in 10.0 mi SSW 15.0 mph - N/A   Overcast
8:35 PM 55.4 °F - 51.8 °F 88% 29.77 in 10.0 mi SSW 16.1 mph - N/A   Overcast
8:55 PM 55.4 °F - 51.8 °F 88% 29.77 in 10.0 mi SSW 10.4 mph - N/A   Scattered Clouds
9:15 PM 55.4 °F - 51.8 °F 88% 29.78 in 10.0 mi SSW 8.1 mph 16.1 mph N/A   Clear
9:35 PM 55.4 °F - 51.8 °F 88% 29.78 in 10.0 mi SSW 11.5 mph 18.4 mph N/A   Clear
9:55 PM 55.4 °F - 51.8 °F 88% 29.78 in 10.0 mi SSW 12.7 mph 16.1 mph N/A   Clear
10:15 PM 55.4 °F - 51.8 °F 88% 29.79 in 10.0 mi SW 10.4 mph - N/A   Clear
10:35 PM 55.4 °F - 51.8 °F 88% 29.81 in 10.0 mi SSW 10.4 mph - N/A   Clear
10:55 PM 55.4 °F - 50.0 °F 82% 29.81 in 10.0 mi SSW 9.2 mph - N/A   Clear
11:15 PM 53.6 °F - 50.0 °F 88% 29.82 in 10.0 mi SSW 8.1 mph - N/A   Clear
11:35 PM 53.6 °F - 46.4 °F 77% 29.82 in 10.0 mi SW 8.1 mph - N/A   Clear
11:55 PM 53.6 °F - 44.6 °F 72% 29.83 in 10.0 mi SSW 9.2 mph - N/A   Clear